Location: Sungai Kamana Besar
(2.6333°N, 113.4333°E)
Time: 06:22:09
(UTC+00:00)

GPS 2-17 Rocket1 - Pass Details

Date: 29 May 2022
Orbit: 569 x 656 km, 20.3° (Epoch: 26 June)

Event Time Altitude Azimuth Distance (km) Brightness Sun altitude
Rises 12:32:15 0° 285° (WNW) 2,958 7.7 -28.5°
Reaches altitude 10° 12:34:40 10° 281° (W) 2,045 6.6 -29.0°
Enters shadow 12:37:55 39° 261° (W) 959 4.3 -29.7°
